Location: Unspecified
(50.7693°N, 0.0000°E)
Time: 21:22:58
(UTC+00:00)

deb Explorer IX - Pass Details

Date: 27 June 2019
Orbit: 539 x 1112 km, 38.8° (Epoch: 15 July)

Event Time Altitude Azimuth Distance (km) Brightness Sun altitude
Rises 15:01:44 0° 258° (WSW) 3,809 ? 46.0°
Reaches altitude 10° 15:04:46 10° 248° (WSW) 2,909 ? 45.6°
Maximum altitude 15:10:43 29° 192° (SSW) 1,923 ? 44.7°
Drops below altitude 10° 15:16:47 10° 137° (SE) 2,959 ? 43.8°
Sets 15:19:54 0° 126° (SE) 3,885 ? 43.3°
